CAT,Max TemperatureF,Mean TemperatureF,Min TemperatureF,Max Dew PointF,MeanDew PointF,Min DewpointF,Max Humidity, Mean Humidity, Min Humidity, Max Sea Level PressureIn, Mean Sea Level PressureIn, Min Sea Level PressureIn, Max VisibilityMiles, Mean VisibilityMiles, Min VisibilityMiles, Max Wind SpeedMPH, Mean Wind SpeedMPH, Max Gust SpeedMPH,PrecipitationIn, CloudCover, Events, WindDirDegrees
2013-12-1,96,81,66,61,56,52,48,28,15,30.01,29.95,29.89,19,16,6,10,9,,0.00,3,,120
2013-12-2,95,82,70,62,60,59,54,35,22,30.09,30.04,29.98,19,16,6,12,11,,0.00,6,Thunderstorm,115
2013-12-3,93,80,68,59,57,55,34,26,20,30.09,30.04,29.98,19,16,6,12,10,,0.00,6,,100
2013-12-4,93,82,71,66,64,62,83,48,26,30.04,30.02,30.01,19,16,6,9,7,,0.00,3,,280
2013-12-5,89,78,68,64,61,56,83,44,25,29.98,29.94,29.89,19,19,19,8,5,,0.00,,,205
2013-12-6,78,73,68,66,64,63,88,68,51,30.04,30.00,29.92,19,14,6,9,7,,0.00,6,,72
2013-12-7,81,74,68,66,64,63,83,59,46,30.09,30.05,30.01,19,12,6,12,10,,0.00,5,Thunderstorm,103
2013-12-8,79,74,69,70,66,64,78,67,51,30.12,30.08,30.04,19,16,6,10,8,,0.00,6,Rain-Thunderstorm,105
2013-12-9,88,78,68,63,61,58,47,37,26,30.04,29.95,29.86,19,15,6,9,7,,0.00,3,,15
2013-12-10,85,76,68,66,65,64,83,52,39,29.95,29.93,29.89,19,19,19,14,5,,0.00,,,313
2013-12-11,80,72,64,68,67,64,94,77,57,29.95,29.93,29.89,19,15,6,13,9,,0.00,6,Rain-Thunderstorm,70
2013-12-12,72,68,65,68,66,64,100,93,83,30.01,29.98,29.92,19,9,3,9,6,,0.00,6,Rain,78
2013-12-13,68,66,65,67,65,64,95,94,92,29.98,29.98,29.98,19,13,1,12,7,,0.00,8,Rain,150
2013-12-14,76,68,61,70,67,63,94,85,76,30.01,29.96,29.89,19,15,6,6,3,,0.00,6,Rain-Thunderstorm,146
2013-12-15,83,74,64,71,68,64,94,79,50,30.04,29.97,29.92,19,13,6,9,5,,0.00,5,Rain-Thunderstorm,76
2013-12-16,83,74,66,70,68,66,94,73,48,30.04,30.00,29.98,19,15,6,6,3,,0.00,6,Rain-Thunderstorm,0
2013-12-17,89,72,66,70,69,68,92,77,52,29.98,29.94,29.89,19,14,6,7,6,,0.00,7,Rain-Thunderstorm,84
2013-12-18,80,74,67,70,69,68,100,83,59,29.98,29.97,29.95,19,12,1,7,6,,0.00,8,Thunderstorm,103
2013-12-19,72,58,49,68,67,66,100,94,83,30.01,30.01,30.01,16,13,6,9,8,,0.00,8,Rain,120
2013-12-20,76,72,67,70,67,65,93,87,75,30.04,30.04,30.04,19,13,3,8,7,,0.00,7,Rain-Thunderstorm,110
2013-12-21,81,74,66,70,69,68,95,84,60,30.12,30.06,30.01,19,12,6,10,8,,0.00,7,Rain-Thunderstorm,105
2013-12-22,86,75,64,72,70,68,100,71,49,30.09,30.02,29.92,19,12,6,10,9,,0.00,3,,108
2013-12-23,87,76,66,68,66,63,73,52,35,30.01,29.93,29.86,19,19,19,9,8,,0.00,,,137
2013-12-24,89,77,66,70,67,61,94,60,30,29.98,29.98,29.98,19,19,19,8,7,,0.00,,,115
2013-12-25,90,75,64,66,64,62,78,52,30,30.01,30.00,29.98,19,16,6,8,6,,0.00,1,,40
2013-12-26,90,78,65,70,66,63,88,54,32,30.01,29.96,29.86,19,15,6,8,4,,0.00,4,,43
2013-12-27,89,78,66,70,68,64,94,58,39,30.01,29.95,29.86,19,15,6,9,5,,0.00,4,,24
2013-12-28,83,76,68,70,68,66,94,74,51,30.01,29.95,29.83,19,14,6,10,6,,0.00,5,Thunderstorm,135
2013-12-29,82,75,68,69,68,66,94,70,55,29.98,29.98,29.98,19,16,6,9,5,,0.00,3,Thunderstorm,55
2013-12-30,80,73,66,70,69,66,94,80,64,29.98,29.94,29.86,19,12,6,9,5,,0.00,7,Thunderstorm,63
2013-12-31,76,72,68,70,69,68,100,94,72,29.98,29.94,29.89,19,12,6,7,6,,0.00,7,Rain-Thunderstorm,61